Location: Kellogg
(38.0159°N, 90.0546°W)
Time: 16:28:42
(UTC+00:00)

Altair - Pass Details

Date: 19 September 2024
Orbit: 1501 x 1682 km, 47.2° (Epoch: 15 October)

Event Time Altitude Azimuth Distance (km) Brightness Sun altitude
Exits shadow 06:07:38 18° 71° (ENE) 3,347 9.3 -50.6°
Drops below altitude 10° 06:09:43 10° 66° (ENE) 3,930 9.8 -50.5°
Sets 06:13:05 0° 60° (ENE) 4,931 10.5 -50.5°
